PDT,Max TemperatureF,Mean TemperatureF,Min TemperatureF,Max Dew PointF,MeanDew PointF,Min DewpointF,Max Humidity, Mean Humidity, Min Humidity, Max Sea Level PressureIn, Mean Sea Level PressureIn, Min Sea Level PressureIn, Max VisibilityMiles, Mean VisibilityMiles, Min VisibilityMiles, Max Wind SpeedMPH, Mean Wind SpeedMPH, Max Gust SpeedMPH,PrecipitationIn, CloudCover, Events, WindDirDegrees
2013-8-1,82,71,60,59,52,45,84,61,38,29.91,29.87,29.83,10,10,6,28,8,33,0.22,2,Rain,128
2013-8-2,74,68,61,60,58,57,97,79,61,30.05,29.98,29.91,10,10,8,15,9,20,0.09,5,Rain,181
2013-8-3,80,71,61,59,57,54,90,68,45,30.11,30.06,29.99,10,10,9,8,3,13,0.00,5,,130
2013-8-4,89,73,56,57,53,48,93,60,26,30.04,29.97,29.89,10,10,10,14,5,18,0.00,0,,358
2013-8-5,94,77,60,57,53,45,78,49,19,29.96,29.90,29.82,10,10,10,20,5,33,0.00,0,,312
2013-8-6,96,78,59,58,51,41,78,47,16,29.93,29.87,29.80,10,10,10,13,4,17,0.00,0,,169
2013-8-7,95,77,58,53,46,36,75,44,12,29.90,29.85,29.80,10,10,10,10,5,14,0.00,0,,228
2013-8-8,93,76,59,56,49,40,78,47,16,29.90,29.85,29.81,10,10,10,10,3,15,0.00,0,,207
2013-8-9,98,79,59,57,50,46,67,43,18,29.86,29.79,29.72,10,10,10,23,6,29,0.00,0,,18
2013-8-10,95,81,67,65,55,50,63,43,23,29.92,29.86,29.77,10,10,7,25,8,37,0.12,1,Rain-Thunderstorm,216
2013-8-11,88,76,63,61,57,49,81,54,27,29.96,29.92,29.86,10,10,10,14,6,15,0.00,1,,252
2013-8-12,90,74,58,59,54,45,93,57,21,29.98,29.92,29.87,10,10,9,12,4,14,T,0,,196
2013-8-13,92,74,56,58,51,44,86,53,20,30.02,29.95,29.89,10,10,10,13,3,15,0.00,0,,147
2013-8-14,97,78,58,53,47,38,69,41,13,29.92,29.86,29.78,10,10,10,12,6,14,0.00,0,,257
2013-8-15,90,79,67,56,52,47,63,44,24,29.90,29.87,29.82,10,10,10,20,5,24,0.00,0,,228
2013-8-16,88,76,64,58,52,47,66,47,28,29.97,29.93,29.89,10,10,10,10,3,13,0.00,1,,191
2013-8-17,90,73,55,58,52,45,93,60,26,29.97,29.93,29.89,10,10,10,18,6,23,0.00,0,,244
2013-8-18,90,74,57,53,48,44,72,47,21,30.04,29.98,29.91,10,10,10,16,6,21,0.00,0,,209
2013-8-19,91,74,57,53,48,41,80,52,23,30.00,29.95,29.91,10,10,10,18,7,24,0.00,0,,240
2013-8-20,87,73,58,50,40,30,72,44,15,30.04,29.99,29.94,10,10,10,14,6,17,0.00,0,,259
2013-8-21,93,72,51,45,38,32,66,40,13,30.06,29.99,29.91,10,10,10,14,7,16,0.00,0,,348
2013-8-22,93,75,56,52,40,36,49,32,14,29.93,29.85,29.75,10,10,10,13,6,15,0.00,0,Thunderstorm,310
2013-8-23,87,76,65,57,53,48,63,45,26,29.80,29.76,29.73,10,10,10,14,5,17,0.02,1,Thunderstorm,158
2013-8-24,85,71,56,55,50,43,86,55,23,29.83,29.78,29.72,10,10,10,12,5,15,0.00,0,,190
2013-8-25,85,72,59,59,51,41,90,57,23,29.89,29.84,29.76,10,10,5,35,4,46,0.10,2,Rain-Thunderstorm,211
2013-8-26,80,68,56,58,54,49,100,70,39,29.94,29.90,29.86,10,10,8,12,7,17,0.01,0,,168
2013-8-27,86,69,51,54,51,48,96,62,27,29.95,29.87,29.76,10,10,10,13,3,17,0.00,0,,349
2013-8-28,89,73,56,54,50,47,77,51,24,29.84,29.81,29.75,10,10,10,14,5,17,0.00,0,,12
2013-8-29,87,74,61,61,54,51,72,51,30,29.97,29.89,29.83,10,10,10,20,7,24,T,1,,291
2013-8-30,86,73,60,56,49,42,78,52,25,30.09,30.03,29.98,10,10,10,15,6,20,0.00,0,,245
2013-8-31,90,70,50,47,44,41,77,48,19,30.07,29.97,29.86,10,10,10,13,5,16,0.00,0,,8